星链-11743 (STARLINK-11743)

导读

STARLINK-11743是美国于2025年6月13日发射的星链卫星,归属SpaceX星链互联网星座项目。星链项目旨在构建全球卫星互联网,为偏远地区、网络覆盖薄弱区域提供高速宽带服务。该卫星入轨后,将进一步扩充星链星座规模,提升全球网络覆盖密度与服务稳定性。

基本信息
目录编号:
64379
目录名称:
STARLINK-11743
国际标识:
2025-127K
轨道中心:
EARTH
卫星名称:
星链-11743
卫星全名:
星链-11743 (STARLINK-11743)
卫星状态:
在轨 (已飞行366 天)
发射日期:
2025-06-13 UTC
国别 :
美国 (US)
星等 :
--
轨道信息
数据来源 国际轨道数据
星历时间: 2026-06-14T04:40:03+0800
18小时前
查看轨道信息
半长轴: 6734.541km
偏心率: 0.0002068
轨道倾角: 42.998°
近地点辐角 303.024°
升交点赤经 225.204°
平近点角 57.043°
近地点: 355.011km
远地点: 357.797km
周期: 91.669分钟
每日圈数: 15.708722
详细信息
固有亮度:
5
最大亮度:
2.5
卫星平台:
Starlink V1.0
覆盖范围:
全球
运营商:
太空探索技术公司
运营商所在国:
美国
制造商(研发单位):
太空探索技术公司
制造商所在国:
美国
使用方式:
暂无
卫星简介
Starlink 计划是 SpaceX 推出的全球卫星互联网项目,通过发射低轨道卫星,为全球尤其是偏远地区提供高速、低延迟的互联网服务。自 2019 年起,Starlink 已部署数千颗卫星,旨在缩小全球数字鸿沟,推动互联网普及。该项目还为军事、航空等行业提供通信支持,带来广泛经济效益。
2D轨道图
3D轨道图
轨道高度分析图
轨道倾角分析图
轨道综合分析图
查看轨道综合分析图